owner,sensor,date,latitude,longitude,air_pressure(mBar),qcFlag 
TABS,ioos:station:wmo:42044:1,2013-12-01T00:00:00Z,26.1914,-97.0507,1022.79,11111222 
TABS,ioos:station:wmo:42044:1,2013-12-01T00:30:00Z,26.1914,-97.0507,1022.88,11111222 
TABS,ioos:station:wmo:42044:1,2013-12-01T01:00:00Z,26.1914,-97.0507,1022.93,11111222 
TABS,ioos:station:wmo:42044:1,2013-12-01T01:30:00Z,26.1914,-97.0507,1023.27,11111222 
TABS,ioos:station:wmo:42044:1,2013-12-01T02:00:00Z,26.1914,-97.0507,1023.32,11111222 
TABS,ioos:station:wmo:42044:1,2013-12-01T02:30:00Z,26.1914,-97.0507,1023.29,11111222 
TABS,ioos:station:wmo:42044:1,2013-12-01T03:00:00Z,26.1914,-97.0507,1023.05,11111222 
TABS,ioos:station:wmo:42044:1,2013-12-01T03:30:00Z,26.1914,-97.0507,1022.99,11111222 
TABS,ioos:station:wmo:42044:1,2013-12-01T04:00:00Z,26.1914,-97.0507,1022.95,11111222 
TABS,ioos:station:wmo:42044:1,2013-12-01T04:30:00Z,26.1914,-97.0507,1022.97,11111222 
TABS,ioos:station:wmo:42044:1,2013-12-01T05:00:00Z,26.1914,-97.0507,1022.77,11111222 
TABS,ioos:station:wmo:42044:1,2013-12-01T05:30:00Z,26.1914,-97.0507,1022.54,11111222 
TABS,ioos:station:wmo:42044:1,2013-12-01T06:00:00Z,26.1914,-97.0507,1022.43,11111222 
TABS,ioos:station:wmo:42044:1,2013-12-01T06:30:00Z,26.1914,-97.0507,1022.04,11111222 
TABS,ioos:station:wmo:42044:1,2013-12-01T07:00:00Z,26.1914,-97.0507,1021.78,11111222 
TABS,ioos:station:wmo:42044:1,2013-12-01T07:30:00Z,26.1914,-97.0507,1021.49,11111222 
TABS,ioos:station:wmo:42044:1,2013-12-01T08:00:00Z,26.1914,-97.0507,1021.39,11111222 
TABS,ioos:station:wmo:42044:1,2013-12-01T08:30:00Z,26.1914,-97.0507,1021.14,11111222 
TABS,ioos:station:wmo:42044:1,2013-12-01T09:00:00Z,26.1914,-97.0507,1021.06,11111222 
TABS,ioos:station:wmo:42044:1,2013-12-01T09:30:00Z,26.1914,-97.0507,1021.17,11111222 
TABS,ioos:station:wmo:42044:1,2013-12-01T10:00:00Z,26.1914,-97.0507,1021.1,11111222 
TABS,ioos:station:wmo:42044:1,2013-12-01T10:30:00Z,26.1914,-97.0507,1021.1,11111222 
TABS,ioos:station:wmo:42044:1,2013-12-01T11:00:00Z,26.1914,-97.0507,1020.85,11111222 
TABS,ioos:station:wmo:42044:1,2013-12-01T11:30:00Z,26.1914,-97.0507,1020.88,11111222 
TABS,ioos:station:wmo:42044:1,2013-12-01T12:00:00Z,26.1914,-97.0507,1020.99,11111222 
TABS,ioos:station:wmo:42044:1,2013-12-01T12:30:00Z,26.1914,-97.0507,1021.06,11111222 
TABS,ioos:station:wmo:42044:1,2013-12-01T13:00:00Z,26.1914,-97.0507,1021.32,11111222 
TABS,ioos:station:wmo:42044:1,2013-12-01T13:30:00Z,26.1914,-97.0507,1021.45,11111222 
TABS,ioos:station:wmo:42044:1,2013-12-01T14:00:00Z,26.1914,-97.0507,1021.54,11111222 
TABS,ioos:station:wmo:42044:1,2013-12-01T14:30:00Z,26.1914,-97.0507,1021.7,11111222 
TABS,ioos:station:wmo:42044:1,2013-12-01T15:00:00Z,26.1914,-97.0507,1021.98,11111222 
TABS,ioos:station:wmo:42044:1,2013-12-01T15:30:00Z,26.1914,-97.0507,1022.04,11111222 
TABS,ioos:station:wmo:42044:1,2013-12-01T16:00:00Z,26.1914,-97.0507,1022.13,11111222 
TABS,ioos:station:wmo:42044:1,2013-12-01T16:30:00Z,26.1914,-97.0507,1021.66,11111222 
TABS,ioos:station:wmo:42044:1,2013-12-01T17:00:00Z,26.1914,-97.0507,1021.26,11111222 
TABS,ioos:station:wmo:42044:1,2013-12-01T17:30:00Z,26.1914,-97.0507,1020.84,11111222 
TABS,ioos:station:wmo:42044:1,2013-12-01T18:00:00Z,26.1914,-97.0507,1020.25,11111222 
TABS,ioos:station:wmo:42044:1,2013-12-01T18:30:00Z,26.1914,-97.0507,1019.91,11111222 
TABS,ioos:station:wmo:42044:1,2013-12-01T19:00:00Z,26.1914,-97.0507,1019.07,11111222 
TABS,ioos:station:wmo:42044:1,2013-12-01T19:30:00Z,26.1914,-97.0507,1018.67,11111222 
TABS,ioos:station:wmo:42044:1,2013-12-01T20:00:00Z,26.1914,-97.0507,1018.35,11111222 
TABS,ioos:station:wmo:42044:1,2013-12-01T20:30:00Z,26.1914,-97.0507,1018.28,11111222 
TABS,ioos:station:wmo:42044:1,2013-12-01T21:00:00Z,26.1914,-97.0507,1017.79,11111222 
TABS,ioos:station:wmo:42044:1,2013-12-01T21:30:00Z,26.1914,-97.0507,1017.41,11111222 
TABS,ioos:station:wmo:42044:1,2013-12-01T22:00:00Z,26.1914,-97.0507,1017.07,11111222 
TABS,ioos:station:wmo:42044:1,2013-12-01T22:30:00Z,26.1914,-97.0507,1017.09,11111222 
TABS,ioos:station:wmo:42044:1,2013-12-01T23:00:00Z,26.1914,-97.0507,1017.12,11111222 
TABS,ioos:station:wmo:42044:1,2013-12-01T23:30:00Z,26.1914,-97.0507,1017.1,11111222 
TABS,ioos:station:wmo:42044:1,2013-12-02T00:00:00Z,26.1914,-97.0507,1017.26,11111222 
TABS,ioos:station:wmo:42044:1,2013-12-02T00:30:00Z,26.1914,-97.0507,1017.18,11111222 
TABS,ioos:station:wmo:42044:1,2013-12-02T01:00:00Z,26.1914,-97.0507,1016.99,11111222 
TABS,ioos:station:wmo:42044:1,2013-12-02T01:30:00Z,26.1914,-97.0507,1017.21,11111222 
TABS,ioos:station:wmo:42044:1,2013-12-02T02:00:00Z,26.1914,-97.0507,1017.13,11111222 
TABS,ioos:station:wmo:42044:1,2013-12-02T02:30:00Z,26.1914,-97.0507,1017.38,11111222 
TABS,ioos:station:wmo:42044:1,2013-12-02T03:00:00Z,26.1914,-97.0507,1017.18,11111222 
TABS,ioos:station:wmo:42044:1,2013-12-02T03:30:00Z,26.1914,-97.0507,1016.87,11111222 
TABS,ioos:station:wmo:42044:1,2013-12-02T04:00:00Z,26.1914,-97.0507,1016.61,11111222 
TABS,ioos:station:wmo:42044:1,2013-12-02T04:30:00Z,26.1914,-97.0507,1016.55,11111222 
TABS,ioos:station:wmo:42044:1,2013-12-02T05:00:00Z,26.1914,-97.0507,1016.21,11111222 
TABS,ioos:station:wmo:42044:1,2013-12-02T05:30:00Z,26.1914,-97.0507,1015.96,11111222 
TABS,ioos:station:wmo:42044:1,2013-12-02T06:00:00Z,26.1914,-97.0507,1015.46,11111222 
TABS,ioos:station:wmo:42044:1,2013-12-02T06:30:00Z,26.1914,-97.0507,1015.09,11111222 
TABS,ioos:station:wmo:42044:1,2013-12-02T07:00:00Z,26.1914,-97.0507,1014.85,11111222 
TABS,ioos:station:wmo:42044:1,2013-12-02T07:30:00Z,26.1914,-97.0507,1014.6,11111222 
TABS,ioos:station:wmo:42044:1,2013-12-02T08:00:00Z,26.1914,-97.0507,1014.0,11111222 
TABS,ioos:station:wmo:42044:1,2013-12-02T08:30:00Z,26.1914,-97.0507,1013.7,11111222 
TABS,ioos:station:wmo:42044:1,2013-12-02T09:00:00Z,26.1914,-97.0507,1013.27,11111222 
TABS,ioos:station:wmo:42044:1,2013-12-02T09:30:00Z,26.1914,-97.0507,1013.45,11111222 
TABS,ioos:station:wmo:42044:1,2013-12-02T10:00:00Z,26.1914,-97.0507,1013.06,11111222 
TABS,ioos:station:wmo:42044:1,2013-12-02T10:30:00Z,26.1914,-97.0507,1012.21,11111222 
TABS,ioos:station:wmo:42044:1,2013-12-02T11:00:00Z,26.1914,-97.0507,1012.32,11111222 
TABS,ioos:station:wmo:42044:1,2013-12-02T11:30:00Z,26.1914,-97.0507,1012.77,11111222 
TABS,ioos:station:wmo:42044:1,2013-12-02T12:00:00Z,26.1914,-97.0507,1012.51,11111222 
TABS,ioos:station:wmo:42044:1,2013-12-02T12:30:00Z,26.1914,-97.0507,1012.6,11111222 
TABS,ioos:station:wmo:42044:1,2013-12-02T13:00:00Z,26.1914,-97.0507,1012.79,11111222 
TABS,ioos:station:wmo:42044:1,2013-12-02T13:30:00Z,26.1914,-97.0507,1012.89,11111222 
TABS,ioos:station:wmo:42044:1,2013-12-02T14:00:00Z,26.1914,-97.0507,1012.67,11111222 
TABS,ioos:station:wmo:42044:1,2013-12-02T14:30:00Z,26.1914,-97.0507,1013.01,11111222 
TABS,ioos:station:wmo:42044:1,2013-12-02T15:00:00Z,26.1914,-97.0507,1013.02,11111222 
TABS,ioos:station:wmo:42044:1,2013-12-02T15:30:00Z,26.1914,-97.0507,1013.37,11111222 
TABS,ioos:station:wmo:42044:1,2013-12-02T16:00:00Z,26.1914,-97.0507,1013.7,11111222 
TABS,ioos:station:wmo:42044:1,2013-12-02T16:30:00Z,26.1914,-97.0507,1013.3,11111222 
TABS,ioos:station:wmo:42044:1,2013-12-02T17:00:00Z,26.1914,-97.0507,1012.85,11111222 
TABS,ioos:station:wmo:42044:1,2013-12-02T17:30:00Z,26.1914,-97.0507,1012.28,11111222 
TABS,ioos:station:wmo:42044:1,2013-12-02T18:00:00Z,26.1914,-97.0507,1011.56,11111222 
TABS,ioos:station:wmo:42044:1,2013-12-02T18:30:00Z,26.1914,-97.0507,1010.82,11111222 
TABS,ioos:station:wmo:42044:1,2013-12-02T19:00:00Z,26.1914,-97.0507,1009.91,11111222 
TABS,ioos:station:wmo:42044:1,2013-12-02T19:30:00Z,26.1914,-97.0507,1009.57,11111222 
TABS,ioos:station:wmo:42044:1,2013-12-02T20:00:00Z,26.1914,-97.0507,1009.09,11111222 
TABS,ioos:station:wmo:42044:1,2013-12-02T20:30:00Z,26.1914,-97.0507,1008.86,11111222 
TABS,ioos:station:wmo:42044:1,2013-12-02T21:00:00Z,26.1914,-97.0507,1008.56,11111222 
TABS,ioos:station:wmo:42044:1,2013-12-02T21:30:00Z,26.1914,-97.0507,1008.27,11111222 
TABS,ioos:station:wmo:42044:1,2013-12-02T22:00:00Z,26.1914,-97.0507,1008.21,11111222 
TABS,ioos:station:wmo:42044:1,2013-12-02T22:30:00Z,26.1914,-97.0507,1008.49,11111222 
TABS,ioos:station:wmo:42044:1,2013-12-02T23:00:00Z,26.1914,-97.0507,1008.26,11111222 
TABS,ioos:station:wmo:42044:1,2013-12-02T23:30:00Z,26.1914,-97.0507,1008.34,11111222 
TABS,ioos:station:wmo:42044:1,2013-12-03T00:00:00Z,26.1914,-97.0507,1008.34,11111222 
TABS,ioos:station:wmo:42044:1,2013-12-03T00:30:00Z,26.1914,-97.0507,1007.91,11111222 
TABS,ioos:station:wmo:42044:1,2013-12-03T01:00:00Z,26.1914,-97.0507,1008.05,11111222 
TABS,ioos:station:wmo:42044:1,2013-12-03T01:30:00Z,26.1914,-97.0507,1008.65,11111222 
TABS,ioos:station:wmo:42044:1,2013-12-03T02:00:00Z,26.1914,-97.0507,1008.63,11111222 
TABS,ioos:station:wmo:42044:1,2013-12-03T02:30:00Z,26.1914,-97.0507,1008.85,11111222 
TABS,ioos:station:wmo:42044:1,2013-12-03T03:00:00Z,26.1914,-97.0507,1008.9,11111222 
TABS,ioos:station:wmo:42044:1,2013-12-03T03:30:00Z,26.1914,-97.0507,1008.71,11111222 
TABS,ioos:station:wmo:42044:1,2013-12-03T04:00:00Z,26.1914,-97.0507,1008.78,11111222 
TABS,ioos:station:wmo:42044:1,2013-12-03T04:30:00Z,26.1914,-97.0507,1008.51,11111222 
TABS,ioos:station:wmo:42044:1,2013-12-03T05:00:00Z,26.1914,-97.0507,1008.43,11111222 
TABS,ioos:station:wmo:42044:1,2013-12-03T05:30:00Z,26.1914,-97.0507,1008.14,11111222 
TABS,ioos:station:wmo:42044:1,2013-12-03T06:00:00Z,26.1914,-97.0507,1007.73,11111222 
TABS,ioos:station:wmo:42044:1,2013-12-03T06:30:00Z,26.1914,-97.0507,1007.19,11111222 
TABS,ioos:station:wmo:42044:1,2013-12-03T07:00:00Z,26.1914,-97.0507,1006.95,11111222 
TABS,ioos:station:wmo:42044:1,2013-12-03T07:30:00Z,26.1914,-97.0507,1006.97,11111222 
TABS,ioos:station:wmo:42044:1,2013-12-03T08:00:00Z,26.1914,-97.0507,1007.16,11111222 
TABS,ioos:station:wmo:42044:1,2013-12-03T08:30:00Z,26.1914,-97.0507,1007.2,11111222 
TABS,ioos:station:wmo:42044:1,2013-12-03T09:00:00Z,26.1914,-97.0507,1006.89,11111222 
TABS,ioos:station:wmo:42044:1,2013-12-03T09:30:00Z,26.1914,-97.0507,1006.93,11111222 
TABS,ioos:station:wmo:42044:1,2013-12-03T10:00:00Z,26.1914,-97.0507,1006.89,11111222 
TABS,ioos:station:wmo:42044:1,2013-12-03T10:30:00Z,26.1914,-97.0507,1006.76,11111222 
TABS,ioos:station:wmo:42044:1,2013-12-03T11:00:00Z,26.1914,-97.0507,1006.62,11111222 
TABS,ioos:station:wmo:42044:1,2013-12-03T11:30:00Z,26.1914,-97.0507,1006.53,11111222 
TABS,ioos:station:wmo:42044:1,2013-12-03T12:00:00Z,26.1914,-97.0507,1006.75,11111222 
TABS,ioos:station:wmo:42044:1,2013-12-03T12:30:00Z,26.1914,-97.0507,1006.99,11111222 
TABS,ioos:station:wmo:42044:1,2013-12-03T13:00:00Z,26.1914,-97.0507,1007.32,11111222 
TABS,ioos:station:wmo:42044:1,2013-12-03T13:30:00Z,26.1914,-97.0507,1007.31,11111222 
TABS,ioos:station:wmo:42044:1,2013-12-03T14:00:00Z,26.1914,-97.0507,1007.57,11111222 
TABS,ioos:station:wmo:42044:1,2013-12-03T14:30:00Z,26.1914,-97.0507,1007.88,11111222 
TABS,ioos:station:wmo:42044:1,2013-12-03T15:00:00Z,26.1914,-97.0507,1008.1,11111222 
TABS,ioos:station:wmo:42044:1,2013-12-03T15:30:00Z,26.1914,-97.0507,1008.46,11111222 
TABS,ioos:station:wmo:42044:1,2013-12-03T16:00:00Z,26.1914,-97.0507,1008.54,11111222 
TABS,ioos:station:wmo:42044:1,2013-12-03T16:30:00Z,26.1914,-97.0507,1008.34,11111222 
TABS,ioos:station:wmo:42044:1,2013-12-03T17:00:00Z,26.1914,-97.0507,1007.95,11111222 
TABS,ioos:station:wmo:42044:1,2013-12-03T17:30:00Z,26.1914,-97.0507,1007.66,11111222 
TABS,ioos:station:wmo:42044:1,2013-12-03T18:00:00Z,26.1914,-97.0507,1007.19,11111222 
TABS,ioos:station:wmo:42044:1,2013-12-03T18:30:00Z,26.1914,-97.0507,1006.71,11111222 
TABS,ioos:station:wmo:42044:1,2013-12-03T19:00:00Z,26.1914,-97.0507,1006.21,11111222 
TABS,ioos:station:wmo:42044:1,2013-12-03T19:30:00Z,26.1914,-97.0507,1005.57,11111222 
TABS,ioos:station:wmo:42044:1,2013-12-03T20:00:00Z,26.1914,-97.0507,1005.3,11111222 
TABS,ioos:station:wmo:42044:1,2013-12-03T20:30:00Z,26.1914,-97.0507,1004.99,11111222 
TABS,ioos:station:wmo:42044:1,2013-12-03T21:00:00Z,26.1914,-97.0507,1004.67,11111222 
TABS,ioos:station:wmo:42044:1,2013-12-03T21:30:00Z,26.1914,-97.0507,1004.68,11111222 
TABS,ioos:station:wmo:42044:1,2013-12-03T22:00:00Z,26.1914,-97.0507,1004.88,11111222 
TABS,ioos:station:wmo:42044:1,2013-12-03T22:30:00Z,26.1914,-97.0507,1005.05,11111222 
TABS,ioos:station:wmo:42044:1,2013-12-03T23:00:00Z,26.1914,-97.0507,1005.18,11111222 
TABS,ioos:station:wmo:42044:1,2013-12-03T23:30:00Z,26.1914,-97.0507,1005.22,11111222 
TABS,ioos:station:wmo:42044:1,2013-12-04T00:00:00Z,26.1914,-97.0507,1005.58,11111222 
TABS,ioos:station:wmo:42044:1,2013-12-04T00:30:00Z,26.1914,-97.0507,1005.89,11111222 
TABS,ioos:station:wmo:42044:1,2013-12-04T01:00:00Z,26.1914,-97.0507,1006.09,11111222 
TABS,ioos:station:wmo:42044:1,2013-12-04T01:30:00Z,26.1914,-97.0507,1006.45,11111222 
TABS,ioos:station:wmo:42044:1,2013-12-04T02:00:00Z,26.1914,-97.0507,1006.57,11111222 
TABS,ioos:station:wmo:42044:1,2013-12-04T02:30:00Z,26.1914,-97.0507,1006.99,11111222 
TABS,ioos:station:wmo:42044:1,2013-12-04T03:00:00Z,26.1914,-97.0507,1007.23,11111222 
TABS,ioos:station:wmo:42044:1,2013-12-04T03:30:00Z,26.1914,-97.0507,1007.28,11111222 
TABS,ioos:station:wmo:42044:1,2013-12-04T04:00:00Z,26.1914,-97.0507,1007.46,11111222 
TABS,ioos:station:wmo:42044:1,2013-12-04T04:30:00Z,26.1914,-97.0507,1007.51,11111222 
TABS,ioos:station:wmo:42044:1,2013-12-04T05:00:00Z,26.1914,-97.0507,1007.55,11111222 
TABS,ioos:station:wmo:42044:1,2013-12-04T05:30:00Z,26.1914,-97.0507,1007.32,11111222 
TABS,ioos:station:wmo:42044:1,2013-12-04T06:00:00Z,26.1914,-97.0507,1007.02,11111222 
TABS,ioos:station:wmo:42044:1,2013-12-04T06:30:00Z,26.1914,-97.0507,1006.71,11111222 
TABS,ioos:station:wmo:42044:1,2013-12-04T07:00:00Z,26.1914,-97.0507,1006.74,11111222 
TABS,ioos:station:wmo:42044:1,2013-12-04T07:30:00Z,26.1914,-97.0507,1006.66,11111222 
TABS,ioos:station:wmo:42044:1,2013-12-04T08:00:00Z,26.1914,-97.0507,1006.54,11111222 
TABS,ioos:station:wmo:42044:1,2013-12-04T08:30:00Z,26.1914,-97.0507,1006.38,11111222 
TABS,ioos:station:wmo:42044:1,2013-12-04T09:00:00Z,26.1914,-97.0507,1006.0,11111222 
TABS,ioos:station:wmo:42044:1,2013-12-04T09:30:00Z,26.1914,-97.0507,1005.98,11111222 
TABS,ioos:station:wmo:42044:1,2013-12-04T10:00:00Z,26.1914,-97.0507,1005.97,11111222 
TABS,ioos:station:wmo:42044:1,2013-12-04T10:30:00Z,26.1914,-97.0507,1006.22,11111222 
TABS,ioos:station:wmo:42044:1,2013-12-04T11:00:00Z,26.1914,-97.0507,1006.11,11111222 
TABS,ioos:station:wmo:42044:1,2013-12-04T11:30:00Z,26.1914,-97.0507,1006.34,11111222 
TABS,ioos:station:wmo:42044:1,2013-12-04T12:00:00Z,26.1914,-97.0507,1006.59,11111222 
TABS,ioos:station:wmo:42044:1,2013-12-04T12:30:00Z,26.1914,-97.0507,1006.86,11111222 
TABS,ioos:station:wmo:42044:1,2013-12-04T13:00:00Z,26.1914,-97.0507,1007.12,11111222 
TABS,ioos:station:wmo:42044:1,2013-12-04T13:30:00Z,26.1914,-97.0507,1007.44,11111222 
TABS,ioos:station:wmo:42044:1,2013-12-04T14:00:00Z,26.1914,-97.0507,1007.6,11111222 
TABS,ioos:station:wmo:42044:1,2013-12-04T14:30:00Z,26.1914,-97.0507,1008.09,11111222 
TABS,ioos:station:wmo:42044:1,2013-12-04T15:00:00Z,26.1914,-97.0507,1008.27,11111222 
TABS,ioos:station:wmo:42044:1,2013-12-04T15:30:00Z,26.1914,-97.0507,1008.55,11111222 
TABS,ioos:station:wmo:42044:1,2013-12-04T16:00:00Z,26.1914,-97.0507,1008.67,11111222 
TABS,ioos:station:wmo:42044:1,2013-12-04T16:30:00Z,26.1914,-97.0507,1008.54,11111222 
TABS,ioos:station:wmo:42044:1,2013-12-04T17:00:00Z,26.1914,-97.0507,1008.35,11111222 
TABS,ioos:station:wmo:42044:1,2013-12-04T17:30:00Z,26.1914,-97.0507,1008.09,11111222 
TABS,ioos:station:wmo:42044:1,2013-12-04T18:00:00Z,26.1914,-97.0507,1007.58,11111222 
TABS,ioos:station:wmo:42044:1,2013-12-04T18:30:00Z,26.1914,-97.0507,1007.21,11111222 
TABS,ioos:station:wmo:42044:1,2013-12-04T19:00:00Z,26.1914,-97.0507,1007.0,11111222 
TABS,ioos:station:wmo:42044:1,2013-12-04T19:30:00Z,26.1914,-97.0507,1006.31,11111222 
TABS,ioos:station:wmo:42044:1,2013-12-04T20:00:00Z,26.1914,-97.0507,1006.07,11111222 
TABS,ioos:station:wmo:42044:1,2013-12-04T20:30:00Z,26.1914,-97.0507,1005.91,11111222 
TABS,ioos:station:wmo:42044:1,2013-12-04T21:00:00Z,26.1914,-97.0507,1005.84,11111222 
TABS,ioos:station:wmo:42044:1,2013-12-04T21:30:00Z,26.1914,-97.0507,1005.82,11111222 
TABS,ioos:station:wmo:42044:1,2013-12-04T22:00:00Z,26.1914,-97.0507,1006.12,11111222 
TABS,ioos:station:wmo:42044:1,2013-12-04T22:30:00Z,26.1914,-97.0507,1006.4,11111222 
TABS,ioos:station:wmo:42044:1,2013-12-04T23:00:00Z,26.1914,-97.0507,1006.44,11111222 
TABS,ioos:station:wmo:42044:1,2013-12-04T23:30:00Z,26.1914,-97.0507,1006.67,11111222 
TABS,ioos:station:wmo:42044:1,2013-12-05T00:00:00Z,26.1914,-97.0507,1006.94,11111222 
TABS,ioos:station:wmo:42044:1,2013-12-05T00:30:00Z,26.1914,-97.0507,1007.27,11111222 
TABS,ioos:station:wmo:42044:1,2013-12-05T01:00:00Z,26.1914,-97.0507,1007.79,11111222 
TABS,ioos:station:wmo:42044:1,2013-12-05T01:30:00Z,26.1914,-97.0507,1007.82,11111222 
TABS,ioos:station:wmo:42044:1,2013-12-05T02:00:00Z,26.1914,-97.0507,1008.25,11111222 
TABS,ioos:station:wmo:42044:1,2013-12-05T02:30:00Z,26.1914,-97.0507,1008.64,11111222 
TABS,ioos:station:wmo:42044:1,2013-12-05T03:00:00Z,26.1914,-97.0507,1008.86,11111222 
TABS,ioos:station:wmo:42044:1,2013-12-05T03:30:00Z,26.1914,-97.0507,1008.97,11111222 
TABS,ioos:station:wmo:42044:1,2013-12-05T04:00:00Z,26.1914,-97.0507,1009.14,11111222 
TABS,ioos:station:wmo:42044:1,2013-12-05T04:30:00Z,26.1914,-97.0507,1009.28,11111222 
TABS,ioos:station:wmo:42044:1,2013-12-05T05:00:00Z,26.1914,-97.0507,1009.11,11111222 
TABS,ioos:station:wmo:42044:1,2013-12-05T05:30:00Z,26.1914,-97.0507,1009.3,11111222 
TABS,ioos:station:wmo:42044:1,2013-12-05T06:00:00Z,26.1914,-97.0507,1009.09,11111222 
TABS,ioos:station:wmo:42044:1,2013-12-05T06:30:00Z,26.1914,-97.0507,1008.96,11111222 
TABS,ioos:station:wmo:42044:1,2013-12-05T07:00:00Z,26.1914,-97.0507,1008.93,11111222 
TABS,ioos:station:wmo:42044:1,2013-12-05T07:30:00Z,26.1914,-97.0507,1009.05,11111222 
TABS,ioos:station:wmo:42044:1,2013-12-05T08:00:00Z,26.1914,-97.0507,1008.65,11111222 
TABS,ioos:station:wmo:42044:1,2013-12-05T08:30:00Z,26.1914,-97.0507,1008.62,11111222 
TABS,ioos:station:wmo:42044:1,2013-12-05T09:00:00Z,26.1914,-97.0507,1008.55,11111222 
TABS,ioos:station:wmo:42044:1,2013-12-05T09:30:00Z,26.1914,-97.0507,1008.53,11111222 
TABS,ioos:station:wmo:42044:1,2013-12-05T10:00:00Z,26.1914,-97.0507,1008.64,11111222 
TABS,ioos:station:wmo:42044:1,2013-12-05T10:30:00Z,26.1914,-97.0507,1008.83,11111222 
TABS,ioos:station:wmo:42044:1,2013-12-05T11:00:00Z,26.1914,-97.0507,1008.91,11111222 
TABS,ioos:station:wmo:42044:1,2013-12-05T11:30:00Z,26.1914,-97.0507,1009.01,11111222 
TABS,ioos:station:wmo:42044:1,2013-12-05T12:00:00Z,26.1914,-97.0507,1009.26,11111222 
TABS,ioos:station:wmo:42044:1,2013-12-05T12:30:00Z,26.1914,-97.0507,1009.45,11111222 
TABS,ioos:station:wmo:42044:1,2013-12-05T13:00:00Z,26.1914,-97.0507,1009.77,11111222 
TABS,ioos:station:wmo:42044:1,2013-12-05T13:30:00Z,26.1914,-97.0507,1010.2,11111222 
TABS,ioos:station:wmo:42044:1,2013-12-05T14:00:00Z,26.1914,-97.0507,1010.51,11111222 
TABS,ioos:station:wmo:42044:1,2013-12-05T14:30:00Z,26.1914,-97.0507,1010.99,11111222 
TABS,ioos:station:wmo:42044:1,2013-12-05T15:00:00Z,26.1914,-97.0507,1011.0,11111222 
TABS,ioos:station:wmo:42044:1,2013-12-05T15:30:00Z,26.1914,-97.0507,1011.15,11111222 
TABS,ioos:station:wmo:42044:1,2013-12-05T16:00:00Z,26.1914,-97.0507,1011.4,11111222 
TABS,ioos:station:wmo:42044:1,2013-12-05T16:30:00Z,26.1914,-97.0507,1011.21,11111222 
TABS,ioos:station:wmo:42044:1,2013-12-05T17:00:00Z,26.1914,-97.0507,1010.67,11111222 
TABS,ioos:station:wmo:42044:1,2013-12-05T17:30:00Z,26.1914,-97.0507,1010.6,11111222 
TABS,ioos:station:wmo:42044:1,2013-12-05T18:00:00Z,26.1914,-97.0507,1010.35,11111222 
TABS,ioos:station:wmo:42044:1,2013-12-05T18:30:00Z,26.1914,-97.0507,1009.98,11111222 
TABS,ioos:station:wmo:42044:1,2013-12-05T19:00:00Z,26.1914,-97.0507,1009.38,11111222 
TABS,ioos:station:wmo:42044:1,2013-12-05T19:30:00Z,26.1914,-97.0507,1008.93,11111222 
TABS,ioos:station:wmo:42044:1,2013-12-05T20:00:00Z,26.1914,-97.0507,1008.33,11111222 
TABS,ioos:station:wmo:42044:1,2013-12-05T20:30:00Z,26.1914,-97.0507,1007.95,11111222 
TABS,ioos:station:wmo:42044:1,2013-12-05T21:00:00Z,26.1914,-97.0507,1007.78,11111222 
TABS,ioos:station:wmo:42044:1,2013-12-05T21:30:00Z,26.1914,-97.0507,1007.57,11111222 
TABS,ioos:station:wmo:42044:1,2013-12-05T22:00:00Z,26.1914,-97.0507,1007.69,11111222 
TABS,ioos:station:wmo:42044:1,2013-12-05T22:30:00Z,26.1914,-97.0507,1007.79,11111222 
TABS,ioos:station:wmo:42044:1,2013-12-05T23:00:00Z,26.1914,-97.0507,1008.28,11111222 
TABS,ioos:station:wmo:42044:1,2013-12-05T23:30:00Z,26.1914,-97.0507,1008.88,11111222 
TABS,ioos:station:wmo:42044:1,2013-12-06T00:00:00Z,26.1914,-97.0507,1009.5,11111222 
TABS,ioos:station:wmo:42044:1,2013-12-06T00:30:00Z,26.1914,-97.0507,1009.92,11111222 
TABS,ioos:station:wmo:42044:1,2013-12-06T01:00:00Z,26.1914,-97.0507,1010.53,11111222 
TABS,ioos:station:wmo:42044:1,2013-12-06T01:30:00Z,26.1914,-97.0507,1010.84,11111222 
TABS,ioos:station:wmo:42044:1,2013-12-06T02:00:00Z,26.1914,-97.0507,1010.99,11111222 
TABS,ioos:station:wmo:42044:1,2013-12-06T02:30:00Z,26.1914,-97.0507,1011.25,11111222 
TABS,ioos:station:wmo:42044:1,2013-12-06T03:00:00Z,26.1914,-97.0507,1011.16,11111222 
TABS,ioos:station:wmo:42044:1,2013-12-06T03:30:00Z,26.1914,-97.0507,1011.36,11111222 
TABS,ioos:station:wmo:42044:1,2013-12-06T04:00:00Z,26.1914,-97.0507,1011.74,11111222 
TABS,ioos:station:wmo:42044:1,2013-12-06T04:30:00Z,26.1914,-97.0507,1012.12,11111222 
TABS,ioos:station:wmo:42044:1,2013-12-06T05:00:00Z,26.1914,-97.0507,1012.31,11111222 
TABS,ioos:station:wmo:42044:1,2013-12-06T05:30:00Z,26.1914,-97.0507,1012.45,11111222 
TABS,ioos:station:wmo:42044:1,2013-12-06T06:00:00Z,26.1914,-97.0507,1012.35,11111222 
TABS,ioos:station:wmo:42044:1,2013-12-06T06:30:00Z,26.1914,-97.0507,1012.24,11111222 
TABS,ioos:station:wmo:42044:1,2013-12-06T07:00:00Z,26.1914,-97.0507,1012.51,11111222 
TABS,ioos:station:wmo:42044:1,2013-12-06T07:30:00Z,26.1914,-97.0507,1012.9,11111222 
TABS,ioos:station:wmo:42044:1,2013-12-06T08:00:00Z,26.1914,-97.0507,1012.81,11111222 
TABS,ioos:station:wmo:42044:1,2013-12-06T08:30:00Z,26.1914,-97.0507,1013.3,11111222 
TABS,ioos:station:wmo:42044:1,2013-12-06T09:00:00Z,26.1914,-97.0507,1013.75,11111222 
TABS,ioos:station:wmo:42044:1,2013-12-06T09:30:00Z,26.1914,-97.0507,1014.05,11111222 
TABS,ioos:station:wmo:42044:1,2013-12-06T10:00:00Z,26.1914,-97.0507,1014.89,11111222 
TABS,ioos:station:wmo:42044:1,2013-12-06T10:30:00Z,26.1914,-97.0507,1015.02,11111222 
TABS,ioos:station:wmo:42044:1,2013-12-06T11:00:00Z,26.1914,-97.0507,1014.84,11111222 
TABS,ioos:station:wmo:42044:1,2013-12-06T11:30:00Z,26.1914,-97.0507,1015.32,11111222 
TABS,ioos:station:wmo:42044:1,2013-12-06T12:00:00Z,26.1914,-97.0507,1015.72,11111222 
TABS,ioos:station:wmo:42044:1,2013-12-06T12:30:00Z,26.1914,-97.0507,1016.2,11111222 
TABS,ioos:station:wmo:42044:1,2013-12-06T13:00:00Z,26.1914,-97.0507,1016.23,11111222 
TABS,ioos:station:wmo:42044:1,2013-12-06T13:30:00Z,26.1914,-97.0507,1017.58,11111222 
TABS,ioos:station:wmo:42044:1,2013-12-06T14:00:00Z,26.1914,-97.0507,1017.69,11111222 
TABS,ioos:station:wmo:42044:1,2013-12-06T14:30:00Z,26.1914,-97.0507,1018.82,11111222 
TABS,ioos:station:wmo:42044:1,2013-12-06T15:00:00Z,26.1914,-97.0507,1019.53,11111222 
TABS,ioos:station:wmo:42044:1,2013-12-06T15:30:00Z,26.1914,-97.0507,1020.44,11111222 
TABS,ioos:station:wmo:42044:1,2013-12-06T16:00:00Z,26.1914,-97.0507,1020.64,11111222 
TABS,ioos:station:wmo:42044:1,2013-12-06T16:30:00Z,26.1914,-97.0507,1020.86,11111222 
TABS,ioos:station:wmo:42044:1,2013-12-06T17:00:00Z,26.1914,-97.0507,1020.83,11111222 
TABS,ioos:station:wmo:42044:1,2013-12-06T17:30:00Z,26.1914,-97.0507,1021.35,11111222 
TABS,ioos:station:wmo:42044:1,2013-12-06T18:00:00Z,26.1914,-97.0507,1021.12,11111222 
TABS,ioos:station:wmo:42044:1,2013-12-06T18:30:00Z,26.1914,-97.0507,1020.93,11111222 